Home   Weather   Kilgore   Past weeks

Flag for USA Past Weather in Kilgore, Texas, USA — Yesterday and Last 2 Weeks

Now
75 °F

Sunny.


Feels Like: 77 °F
Forecast: 57 / 76 °F
Wind: 6 mph from North

Location: Gregg County Airport

Current Time: Sep 29, 2016 at 6:59:54 PM

Latest Report: Sep 29, 2016 at 5:53 PM


Visibility: 10 mi

Pressure: 30.15 "Hg

Humidity: 39%

Dew Point: 48 °F

Location of KilgoreLocation

Past Weather in Kilgore — Graph

°F

Kilgore Temperature Yesterday

Maximum temperature yesterday: 85 °F (at 3:53 PM)
Minimum temperature yesterday: 56 °F (at 6:53 AM)
Average temperature yesterday: 71 °F

High & Low Weather Summary for the Past Weeks

 TemperatureHumidityPressure
High95 °F (Sep 19, 2:53 PM)100% (Sep 15, 2:53 AM)30.23 "Hg (Sep 15, 2:53 AM)
Low56 °F (Sep 28, 6:53 AM)35% (Sep 21, 2:53 PM)29.85 "Hg (Sep 16, 4:53 PM)
Average78 °F75%29.99 "Hg
* Reported Sep 14 5:53 PM — Sep 29 5:53 PM, Kilgore, Weather by CustomWeather, © 2016

Note: Actual official high and low records may vary slightly from our data, if they occured in-between our weather recording intervals... More about our weather records

Advertising

Kilgore Weather History for the Previous 24 Hours

Scroll right to see more
 ConditionsComfort  
Time TempWeatherWind HumidityBarometerVisibility
5:53 PM
Thu, Sep 29
75 °FSunny.6 mph39%30.15 "Hg10 mi
4:53 PM77 °FSunny.9 mph37%30.14 "Hg10 mi
3:53 PM78 °FSunny.10 mph37%30.15 "Hg10 mi
2:53 PM77 °FSunny.8 mph39%30.16 "Hg10 mi
1:53 PM76 °FSunny.14 mph42%30.19 "Hg10 mi
12:53 PM74 °FSunny.7 mph43%30.21 "Hg10 mi
11:53 AM71 °FSunny.7 mph49%30.23 "Hg10 mi
10:53 AM69 °FSunny.9 mph51%30.23 "Hg10 mi
9:53 AM67 °FSunny.10 mph55%30.22 "Hg10 mi
8:53 AM64 °FSunny.8 mph63%30.20 "Hg10 mi
7:53 AM61 °FSunny.8 mph70%30.17 "Hg10 mi
6:53 AM61 °FClear.9 mph70%30.15 "Hg10 mi
5:53 AM63 °FClear.10 mph68%30.12 "Hg10 mi
4:53 AM65 °FClear.7 mph66%30.10 "Hg10 mi
3:53 AM67 °FClear.6 mph61%30.07 "Hg10 mi
2:53 AM69 °FClear.8 mph61%30.06 "Hg10 mi
1:53 AM65 °FClear.5 mph76%30.05 "Hg10 mi
12:53 AM64 °FClear.6 mph81%30.04 "Hg10 mi
11:53 PM
Wed, Sep 28
68 °FClear.No wind68%30.03 "Hg10 mi
10:53 PM71 °FClear.7 mph59%30.02 "Hg10 mi
9:53 PM72 °FClear.7 mph57%30.01 "Hg10 mi
8:53 PM73 °FClear.5 mph57%30.00 "Hg10 mi
7:53 PM75 °FClear.7 mph54%29.99 "Hg10 mi
6:53 PM79 °FSunny.6 mph45%29.99 "Hg10 mi
Weather by CustomWeather, © 2016

See weather overviewHow to use our weather pages